Wind_Speed
26 23 22 19 19 19 18 17 15 13 12 9 9 8 8 10 10 10 11 12 13 11 12 10 11 11 13 17 14 17 14 17 17 8 13 12 15 13 10 27 27 23 21 20 18 19 18
26 23 23 21 22 21 19 17 15 14 12 10 9 10 9 10 13 12 12 12 14 13 12 10 10 11 14 27 13 15 13 13 20 19 16 15 16 22 16 8 11 23 23 19 12 13 12
27 26 25 23 23 21 20 18 16 14 13 11 9 9 9 10 14 15 15 16 15 13 12 13 17 20 30 14 13 12 13 18 17 19 20 14 7 2 11 19 21 15 15 17 18 7 6
29 27 27 25 24 22 20 18 16 14 13 11 10 10 10 11 15 18 18 20 20 18 16 11 10 15 14 10 10 7 9 13 16 20 19 15 16 20 11 18 9 5 2 4 13 9 7
29 29 28 26 25 23 21 19 16 15 14 12 11 10 11 13 17 22 21 22 17 13 12 10 10 12 8 9 13 6 7 10 15 17 23 14 18 17 12 11 8 4 6 7 6 14 2
32 29 29 28 26 23 21 19 16 15 14 13 12 12 13 16 22 24 23 21 19 16 15 12 10 9 9 11 10 10 7 6 7 5 8 15 15 11 7 5 4 8 8 7 6 9 6
32 32 30 29 27 25 23 21 18 17 15 14 13 13 15 19 26 27 29 27 14 8 25 16 17 22 11 13 12 11 11 6 7 11 11 26 16 14 14 13 11 10 9 9 6 6 1
34 33 31 30 28 25 23 21 19 17 16 14 14 15 18 24 29 32 30 6 12 20 21 18 19 21 12 6 11 18 11 8 8 10 15 13 19 11 9 8 9 7 8 7 4 6 2
35 34 32 30 28 26 23 21 19 17 16 15 14 17 21 26 29 26 17 14 29 22 10 8 7 8 6 13 12 15 9 11 22 24 18 14 7 6 8 7 8 11 8 4 3 3 3
35 34 33 31 28 26 24 23 21 19 17 16 17 18 23 24 21 21 17 31 23 10 5 3 2 3 4 5 8 13 9 3 4 8 10 13 7 7 7 9 5 5 6 1 2 5 1
35 36 33 32 29 28 26 23 21 19 18 17 17 19 22 26 12 15 24 22 13 3 3 3 4 4 8 5 8 12 10 18 10 6 3 6 9 9 8 6 8 5 4 1 2 3 6
37 36 34 33 30 28 26 25 23 20 19 17 19 19 21 23 17 18 25 16 6 1 3 5 5 6 7 10 6 5 8 12 8 17 20 11 5 9 5 1 6 5 3 4 4 2 3
37 38 37 33 31 29 27 25 23 21 20 19 18 19 21 21 19 19 22 12 2 2 2 8 7 7 6 4 5 5 6 6 1 4 3 7 7 3 8 1 1 2 3 1 2 3 2
39 40 38 34 31 30 29 27 25 23 21 20 20 19 19 17 21 25 18 2 2 4 6 4 9 10 4 5 3 3 3 4 5 2 4 3 5 5 6 5 3 7 4 2 3 2 2
41 41 38 33 32 31 29 28 26 24 23 21 19 18 17 16 23 25 5 2 3 5 10 13 13 8 5 5 3 4 2 2 3 3 0 4 5 4 7 8 4 3 4 2 1 0 4
41 42 36 33 33 32 30 29 28 26 24 23 21 18 15 19 24 19 2 2 2 5 14 16 5 5 7 9 6 6 5 2 4 2 1 2 4 1 3 2 9 5 3 2 2 1 3
47 41 36 34 34 33 32 31 29 28 27 25 22 9 12 18 21 7 2 3 4 8 12 7 6 6 5 6 5 5 5 6 4 4 2 5 1 5 3 2 2 3 3 2 1 2 2
46 41 36 35 35 34 33 32 31 30 29 28 13 5 16 23 7 2 3 6 7 11 4 5 5 6 9 7 5 4 6 2 9 9 4 2 2 3 2 2 1 1 3 4 3 2 3
45 41 38 37 36 34 34 33 32 32 33 26 9 7 16 19 4 4 4 5 4 9 8 5 4 3 4 7 4 6 5 4 11 7 6 7 1 3 5 4 3 5 3 4 3 1 9
44 40 38 39 36 34 34 34 33 34 33 19 8 4 3 6 2 11 9 8 6 4 5 7 8 7 9 6 3 8 8 4 7 5 7 4 3 3 3 2 3 4 6 9 6 5 5
41 39 40 39 36 35 36 35 35 35 34 15 5 4 8 5 4 11 10 11 12 6 4 9 4 5 9 6 7 6 7 9 6 11 5 2 2 2 6 9 10 13 10 14 15 15 9
43 40 40 38 35 34 35 35 35 36 33 11 7 6 5 5 16 14 7 10 14 7 10 9 6 12 8 6 6 9 10 8 6 10 7 5 2 2 4 6 11 17 17 17 20 22 23
41 39 39 36 34 34 35 35 35 36 33 11 7 13 8 8 13 9 9 13 14 13 4 6 13 13 8 7 7 11 7 10 10 9 11 6 5 3 2 2 9 12 18 19 18 18 15
40 42 38 35 34 33 34 34 35 35 32 12 13 11 6 4 11 9 13 13 17 5 9 9 15 8 7 17 18 14 12 8 8 6 9 6 7 3 2 4 5 3 2 4 11 14 15
43 40 36 35 33 32 32 32 33 34 31 16 16 8 6 5 11 11 16 20 18 17 15 14 6 7 21 10 4 4 1 2 1 5 8 8 6 3 3 5 13 10 5 10 9 12 10
42 38 36 34 33 32 31 31 31 31 30 20 16 8 5 12 7 12 14 22 14 7 8 6 11 16 7 3 2 4 4 3 4 5 4 9 8 5 2 4 4 4 3 2 2 11 2
40 37 35 35 33 30 29 30 29 30 28 21 17 12 7 8 6 12 7 13 12 11 6 9 10 5 2 2 2 3 3 1 6 7 6 6 5 11 9 5 7 6 8 1 5 2 2
38 37 36 34 31 30 29 28 28 28 25 22 18 15 9 7 9 7 11 9 11 10 6 15 8 2 2 3 4 3 3 5 3 4 6 9 8 5 6 5 7 6 2 5 8 6 7
38 37 35 32 31 29 28 27 27 26 25 22 20 15 10 10 11 13 13 11 12 9 14 18 2 9 8 3 3 3 3 3 5 3 7 5 5 3 8 5 1 1 11 12 14 17 22
Wind_Direction
198 200 189 186 184 180 176 173 174 162 153 162 171 157 160 138 119 111 109 110 113 118 111 114 108 79 69 71 31 19 25 27 37 59 80 90 91 85 86 103 96 94 103 85 91 90 85
200 211 193 184 181 181 177 174 176 163 158 167 175 163 160 136 122 119 118 116 124 129 121 121 104 85 89 67 20 31 32 37 47 51 72 72 87 105 87 80 71 112 97 81 74 72 70
204 209 192 181 182 181 179 176 175 164 162 171 175 166 160 142 128 126 125 121 123 116 116 114 105 84 71 55 22 37 40 50 54 63 68 72 87 117 108 99 116 111 112 79 43 75 57
201 207 192 181 183 182 181 177 177 167 164 172 176 167 157 142 131 130 126 126 124 115 105 106 88 91 80 40 35 71 65 55 53 66 76 75 89 90 88 117 114 127 126 151 46 32 15
202 206 191 182 184 182 182 178 177 170 169 175 175 167 156 144 137 134 126 129 126 121 108 102 88 89 71 26 42 69 84 68 65 61 63 73 83 86 120 133 128 38 101 77 102 29 25
202 201 186 183 185 184 182 177 179 174 171 172 170 166 157 148 141 137 134 130 123 114 108 87 74 71 64 39 57 53 131 105 43 22 28 41 62 88 73 223 100 125 116 85 63 24 44
202 197 185 185 186 185 183 178 180 176 173 168 164 161 155 148 143 142 138 133 123 75 63 80 83 92 97 75 68 47 76 65 58 74 82 52 81 63 62 60 83 102 107 116 86 30 316
202 191 186 186 187 185 182 178 178 174 171 167 163 159 155 152 151 149 150 179 162 134 85 74 81 75 70 95 61 39 56 67 86 94 101 87 60 67 72 72 92 97 105 93 96 25 275
198 187 187 187 185 184 181 177 177 175 170 165 163 160 159 160 163 168 169 163 134 117 96 71 76 59 57 65 50 23 52 84 69 76 75 82 80 79 78 84 101 64 55 59 32 23 80
195 189 187 187 185 182 180 177 175 173 170 167 165 164 163 165 170 177 169 150 141 119 98 94 91 44 20 114 58 38 41 90 76 89 82 70 68 66 82 66 340 94 15 295 232 240 87
201 188 187 188 184 182 180 177 173 173 170 169 167 167 168 167 177 168 165 158 150 118 130 152 89 75 66 88 132 29 35 64 77 90 202 102 73 49 61 39 354 46 322 278 202 157 184
195 188 188 187 183 182 180 176 174 172 169 169 167 169 172 174 173 178 169 154 132 124 140 139 141 146 102 69 69 84 68 81 85 73 78 99 89 40 35 69 16 332 174 149 167 214 203
188 187 189 185 183 180 180 177 175 172 168 168 168 169 173 183 180 178 168 150 120 93 190 157 154 158 112 108 77 73 69 71 86 112 111 120 63 75 24 223 0 50 197 169 204 208 31
187 187 187 186 183 180 178 176 175 171 168 166 165 170 169 180 174 170 167 178 162 130 157 136 144 142 131 146 104 118 135 103 68 47 128 167 162 22 10 34 12 44 16 30 282 291 350
187 187 187 187 182 179 178 176 173 171 167 162 164 164 163 167 171 170 182 78 146 173 143 148 145 162 141 141 147 155 87 95 58 8 110 139 108 117 59 54 321 55 61 20 130 53 263
190 189 187 184 181 178 177 175 172 170 165 161 157 152 154 162 168 166 89 109 94 124 138 151 143 205 162 164 168 189 166 138 123 67 335 121 122 124 99 338 54 35 97 187 73 253 262
187 185 184 182 179 177 176 174 171 168 163 159 149 129 161 159 160 165 137 129 132 148 144 164 140 140 156 150 171 156 138 146 153 115 114 137 195 141 188 201 154 156 152 107 132 291 288
181 184 185 183 179 177 176 173 170 167 161 156 145 111 160 148 128 123 156 141 135 152 130 111 114 106 155 158 151 153 161 89 161 156 137 76 87 142 96 131 269 273 198 197 240 158 256
183 186 186 183 179 177 175 173 171 167 164 155 113 106 158 155 140 154 141 126 138 157 157 136 118 124 145 155 128 136 140 125 158 167 161 168 143 142 162 160 184 239 178 87 102 253 224
183 185 184 181 178 177 174 173 171 170 166 153 134 113 126 186 166 155 155 162 139 122 121 114 117 120 137 150 94 154 143 141 173 166 126 134 177 252 301 66 118 205 185 196 197 209 239
182 182 181 178 177 176 174 173 173 173 170 164 140 130 156 174 203 166 163 164 157 152 142 153 138 183 162 146 152 152 146 137 151 148 140 195 213 237 260 252 243 258 220 205 209 220 228
181 179 178 176 175 174 173 174 175 175 175 172 142 141 118 136 160 159 149 178 171 139 162 174 184 165 166 155 176 180 165 176 172 181 172 171 220 241 272 257 261 266 259 238 230 241 246
181 178 176 176 174 174 174 175 177 177 179 179 152 142 136 147 163 164 177 162 174 145 76 166 159 149 157 115 98 124 148 158 161 168 182 175 172 184 252 316 301 272 249 235 236 239 239
178 175 176 175 174 174 174 175 178 180 181 177 169 142 119 149 176 178 163 157 155 147 133 131 149 145 131 120 106 95 84 102 145 140 184 190 171 185 275 259 242 77 170 238 242 256 249
174 174 175 173 174 173 173 176 178 181 182 176 169 146 128 123 169 154 155 139 123 107 102 122 81 117 137 134 109 107 91 119 220 212 196 198 186 207 258 242 298 277 206 217 219 280 233
171 173 174 173 173 172 172 176 178 180 183 183 177 156 127 122 194 159 145 157 139 124 114 93 111 138 128 100 117 189 193 125 169 160 207 205 229 222 192 252 266 87 115 155 242 274 18
171 173 174 172 170 170 171 175 176 177 182 182 180 185 138 105 139 154 148 160 146 131 111 132 149 143 122 122 146 190 189 173 180 183 170 168 205 219 220 263 277 300 193 264 255 357 355
168 166 165 165 166 167 170 172 173 176 178 178 178 177 163 116 134 133 138 138 137 143 142 152 120 180 118 150 192 182 205 191 212 203 182 175 175 193 202 232 256 190 174 228 8 326 310
166 164 163 163 163 164 167 167 169 173 175 177 172 169 156 127 133 131 137 152 155 154 139 160 135 142 160 132 199 147 171 179 213 238 196 218 213 201 201 224 51 222 283 291 297 296 296
Height
1519 1522 1522 1527 1531 1535 1537 1539 1542 1543 1544 1548 1550 1551 1553 1551 1551 1552 1551 1552 1553 1556 1558 1557 1557 1557 1558 1562 1570 1569 1564 1561 1557 1554 1552 1554 1555 1556 1559 1569 1574 1580 1586 1587 1590 1589 1590
1516 1519 1521 1524 1529 1534 1536 1538 1542 1542 1543 1548 1549 1549 1552 1551 1549 1552 1551 1554 1555 1557 1558 1560 1559 1559 1560 1564 1574 1571 1568 1566 1561 1559 1556 1556 1563 1564 1570 1575 1576 1587 1588 1590 1592 1593 1592
1514 1517 1519 1523 1528 1532 1535 1537 1540 1541 1542 1546 1549 1550 1551 1551 1548 1550 1553 1555 1558 1560 1561 1561 1561 1561 1560 1576 1575 1575 1572 1569 1566 1564 1561 1562 1564 1567 1573 1581 1587 1587 1588 1592 1597 1597 1597
1511 1515 1517 1521 1526 1531 1533 1536 1539 1540 1542 1545 1548 1548 1551 1551 1551 1551 1552 1556 1559 1561 1562 1563 1562 1561 1572 1578 1578 1576 1576 1575 1572 1569 1568 1568 1569 1569 1575 1583 1588 1586 1585 1581 1601 1598 1598
1508 1512 1516 1519 1524 1529 1532 1535 1538 1539 1540 1544 1547 1548 1548 1550 1551 1552 1555 1557 1562 1564 1563 1565 1565 1564 1578 1581 1578 1577 1577 1578 1577 1575 1572 1572 1572 1576 1580 1577 1579 1583 1584 1589 1597 1602 1597
1504 1508 1513 1516 1522 1527 1530 1534 1538 1539 1540 1543 1547 1548 1547 1548 1549 1553 1555 1560 1562 1566 1566 1567 1567 1571 1581 1584 1580 1580 1579 1580 1580 1579 1578 1577 1576 1576 1576 1573 1573 1586 1589 1597 1597 1604 1598
1501 1505 1510 1514 1520 1524 1528 1531 1535 1537 1540 1542 1545 1548 1549 1551 1552 1551 1552 1559 1566 1570 1570 1575 1578 1579 1582 1585 1584 1583 1581 1583 1583 1582 1583 1587 1583 1590 1593 1593 1593 1593 1593 1597 1603 1607 1601
1497 1501 1507 1511 1518 1523 1526 1530 1533 1536 1538 1541 1544 1547 1549 1551 1553 1553 1553 1557 1557 1566 1576 1582 1582 1583 1584 1584 1585 1585 1584 1586 1584 1585 1588 1593 1600 1607 1605 1603 1600 1598 1597 1601 1606 1607 1602
1494 1498 1504 1509 1515 1521 1525 1528 1533 1535 1537 1540 1544 1545 1548 1549 1553 1556 1554 1557 1558 1560 1571 1587 1586 1586 1588 1589 1589 1589 1590 1591 1589 1590 1592 1596 1614 1612 1609 1608 1604 1607 1606 1609 1607 1609 1606
1489 1494 1500 1506 1513 1518 1523 1525 1529 1533 1536 1538 1541 1543 1546 1551 1558 1556 1554 1554 1557 1560 1568 1589 1588 1589 1590 1589 1593 1594 1592 1594 1596 1599 1600 1609 1616 1613 1610 1612 1608 1602 1616 1614 1611 1601 1592
1485 1490 1496 1503 1509 1515 1519 1524 1527 1532 1534 1537 1541 1543 1547 1549 1552 1557 1556 1555 1557 1560 1563 1591 1589 1592 1591 1592 1595 1596 1595 1596 1597 1600 1600 1617 1616 1612 1611 1618 1615 1615 1617 1613 1609 1600 1599
1480 1485 1493 1499 1506 1513 1517 1521 1525 1530 1532 1537 1539 1544 1548 1550 1552 1554 1557 1557 1559 1564 1580 1586 1588 1590 1591 1594 1597 1599 1598 1598 1603 1603 1607 1616 1620 1620 1619 1620 1619 1618 1614 1611 1608 1604 1596
1475 1481 1490 1496 1503 1510 1515 1519 1523 1528 1531 1535 1539 1542 1545 1549 1551 1555 1558 1558 1561 1562 1586 1584 1583 1588 1589 1594 1598 1599 1600 1601 1601 1606 1606 1614 1620 1623 1623 1615 1615 1612 1610 1603 1601 1599 1597
1470 1478 1486 1492 1500 1506 1512 1517 1522 1526 1529 1533 1536 1543 1543 1549 1551 1555 1560 1560 1554 1575 1570 1580 1581 1587 1587 1593 1600 1601 1601 1601 1607 1604 1603 1601 1611 1622 1626 1623 1619 1617 1613 1613 1607 1593 1594
1466 1475 1482 1490 1496 1503 1509 1515 1520 1525 1527 1532 1538 1542 1544 1547 1551 1556 1562 1561 1558 1560 1566 1574 1582 1583 1589 1594 1596 1600 1602 1603 1608 1609 1604 1607 1615 1626 1627 1626 1624 1618 1617 1627 1624 1623 1611
1463 1472 1480 1487 1493 1500 1507 1513 1518 1523 1526 1531 1536 1541 1545 1547 1552 1559 1562 1563 1562 1564 1564 1570 1571 1579 1582 1589 1593 1594 1599 1607 1609 1611 1612 1613 1616 1623 1626 1626 1627 1621 1629 1623 1629 1621 1612
1460 1469 1477 1484 1491 1497 1505 1511 1516 1521 1525 1531 1537 1543 1547 1548 1555 1561 1562 1561 1565 1569 1567 1569 1574 1579 1580 1587 1588 1592 1599 1608 1609 1613 1612 1613 1615 1625 1627 1623 1620 1625 1623 1631 1629 1625 1613
1456 1465 1474 1481 1488 1495 1502 1508 1514 1519 1525 1531 1535 1543 1547 1549 1558 1562 1563 1561 1565 1568 1570 1571 1574 1578 1579 1584 1588 1592 1597 1600 1608 1611 1610 1617 1618 1613 1618 1627 1628 1625 1622 1622 1622 1631 1623
1453 1463 1471 1478 1486 1492 1499 1506 1512 1517 1522 1528 1534 1544 1546 1547 1557 1559 1563 1565 1566 1567 1568 1570 1575 1578 1583 1584 1591 1595 1599 1607 1608 1610 1611 1615 1617 1617 1615 1626 1629 1627 1630 1638 1638 1629 1617
1450 1459 1468 1476 1484 1490 1497 1503 1509 1515 1522 1528 1532 1543 1549 1550 1551 1550 1555 1560 1566 1568 1569 1570 1575 1579 1582 1587 1590 1595 1599 1607 1609 1610 1612 1614 1614 1616 1600 1616 1619 1628 1632 1633 1628 1625 1610
1449 1457 1465 1474 1481 1488 1494 1500 1507 1514 1521 1527 1528 1534 1536 1548 1551 1548 1552 1557 1561 1565 1569 1570 1574 1574 1576 1584 1589 1593 1600 1606 1610 1612 1613 1613 1617 1620 1618 1614 1614 1610 1617 1621 1629 1617 1615
1447 1455 1464 1471 1479 1486 1492 1498 1505 1513 1521 1524 1525 1530 1535 1540 1545 1548 1552 1554 1556 1564 1565 1568 1569 1574 1579 1581 1581 1589 1593 1598 1601 1611 1611 1615 1616 1617 1617 1610 1610 1606 1604 1605 1606 1608 1602
1444 1453 1463 1470 1477 1484 1491 1498 1506 1512 1519 1522 1524 1526 1531 1542 1544 1546 1547 1550 1555 1560 1569 1567 1571 1577 1581 1585 1587 1588 1594 1596 1598 1601 1606 1612 1615 1619 1609 1613 1609 1603 1588 1591 1591 1593 1595
1443 1453 1461 1469 1476 1483 1490 1497 1504 1511 1517 1522 1523 1526 1530 1542 1543 1542 1546 1548 1554 1560 1562 1570 1573 1576 1586 1587 1590 1595 1598 1601 1601 1604 1605 1607 1614 1617 1611 1614 1606 1579 1584 1585 1586 1587 1588
1443 1452 1460 1468 1476 1482 1489 1497 1503 1510 1516 1521 1523 1526 1528 1539 1541 1544 1547 1548 1556 1562 1568 1572 1576 1580 1584 1589 1593 1600 1604 1605 1604 1605 1607 1608 1609 1615 1611 1603 1584 1574 1581 1583 1583 1576 1579
1443 1452 1460 1468 1475 1481 1489 1496 1503 1509 1515 1520 1523 1525 1528 1533 1542 1542 1546 1549 1552 1560 1570 1578 1580 1582 1585 1590 1592 1591 1587 1592 1602 1604 1608 1609 1608 1609 1616 1609 1588 1579 1584 1585 1584 1575 1573
1444 1452 1460 1468 1475 1482 1489 1496 1502 1508 1514 1519 1523 1526 1529 1532 1540 1544 1546 1549 1554 1558 1567 1576 1581 1584 1587 1588 1591 1587 1584 1586 1588 1596 1605 1606 1610 1608 1605 1605 1587 1580 1583 1586 1583 1577 1576
1445 1452 1460 1468 1476 1482 1490 1496 1501 1508 1513 1518 1522 1526 1529 1532 1540 1543 1546 1550 1553 1557 1561 1573 1580 1584 1587 1587 1587 1588 1584 1586 1585 1580 1586 1592 1598 1602 1602 1605 1595 1581 1586 1583 1577 1576 1578
1446 1454 1461 1469 1477 1483 1490 1495 1501 1507 1513 1518 1522 1525 1528 1532 1541 1544 1547 1551 1553 1555 1558 1568 1571 1572 1579 1584 1587 1585 1587 1588 1581 1577 1582 1584 1582 1584 1587 1579 1579 1581 1581 1580 1579 1578 1576